Location: Des Moines
(41.6010°N, 93.6090°W)
Time: 06:41:28
(UTC-05:00)

OTV 5 (USA 277) - Visible Passes

Search period start: 22 October 2019 00:00
Search period end: 01 November 2019 00:00
Orbit: 310 x 324 km, 54.5° (Epoch: 17 October)

Date Brightness Start Highest point End Pass type
(mag) Time Alt. Az. Time Alt. Az. Time Alt. Az.
27 Oct ? 19:25:45 10° S 19:27:43 21° SE 19:27:43 21° SE visible
28 Oct ? 19:39:39 10° SW 19:42:18 66° SE 19:42:18 66° SE visible
29 Oct ? 19:54:18 10° WSW 19:56:46 40° NW 19:56:46 40° NW visible
30 Oct ? 20:09:32 10° WNW 20:11:08 18° NW 20:11:08 18° NW visible
31 Oct ? 18:48:59 10° SW 18:51:41 70° NW 18:54:27 10° NE visible
